Change the Weather History Date:

Thursday, May 30, 2013

  Actual Average (PABR) Record (PABR)
Temperature  
Mean Temperature 31 °F 29 °F  
Max Temperature 33 °F 33 °F 44 °F (1927)
Min Temperature 30 °F 25 °F 7 °F (1926)
Degree Days  
Heating Degree Days 34 36  
Month to date heating degree days 1324  
Since 1 July heating degree days 18471  
Cooling Degree Days 0    
Month to date cooling degree days  
Year to date cooling degree days  
Moisture  
Dew Point 26 °F    
Average Humidity 82    
Maximum Humidity 86    
Minimum Humidity 79    
Precipitation  
Precipitation 0.00 in 0.01 in 0.18 in (2009)
Month to date precipitation 0.17  
Year to date precipitation 0.69  
Snow  
Snow 0.00 in 0.00 in 3.60 in (2009)
Month to date snowfall 2.6  
Since 1 July snowfall 36.9  
Snow Depth -    
Sea Level Pressure  
Sea Level Pressure 30.16 in    
Wind  
Wind Speed 5 mph (North)    
Max Wind Speed 9 mph    
Max Gust Speed -    
Visibility 7 miles    
Events Snow    
T = Trace of Precipitation, MM = Missing Value Source: NWS Daily Summary

Daily Weather History Graph

Daily Weather History Graph

Search for Another Location

Airport or City:

Trip Planner

Search our weather history database for the weather conditions in past years. The results will help you decide how hot, cold, wet, or windy it might be!

Date:

Astronomy

Dec. 31, 1969 Rise Set
Actual Time Sun does not rise Sun does not rise
Civil Twilight Sun does not rise Sun does not rise
Nautical Twilight Sun does not rise Sun does not rise
Astronomical Twilight Sun does not rise Sun does not rise
Moon 3:30 AM AKDT (5/30) 12:29 PM AKDT (5/30)
Length of Visible Light 24h 00m
Length of Day
24h 00m
Waning Gibbous, 61% of the Moon is Illuminated
May 30
Waning Gibbous
May 31
Last Quarter
Jun 8
New
Jun 16
First Quarter
Jun 23
Full

Hourly Weather History & Observations

Time (AKDT) Temp. Windchill Dew Point Humidity Pressure Visibility Wind Dir Wind Speed Gust Speed Precip Events Conditions
12:53 AM 30.9 °F 26.2 °F 27.0 °F 85% 30.11 in 10.0 mi North 4.6 mph - N/A   Overcast
1:43 AM 30.2 °F 24.3 °F 26.6 °F 86% 30.11 in 5.0 mi NNW 5.8 mph - N/A   Overcast
1:53 AM 30.9 °F 26.2 °F 26.1 °F 82% 30.12 in 4.0 mi NNW 4.6 mph - N/A   Haze
2:53 AM 30.0 °F 24.1 °F 26.1 °F 85% 30.12 in 8.0 mi North 5.8 mph - N/A   Overcast
3:14 AM 30.2 °F 24.3 °F 26.6 °F 86% 30.12 in 3.0 mi North 5.8 mph - 0.00 in Snow Light Snow
3:53 AM 30.0 °F 25.2 °F 25.0 °F 82% 30.13 in 9.0 mi North 4.6 mph - 0.00 in   Overcast
4:12 AM 30.2 °F 26.7 °F 26.6 °F 86% 30.13 in 1.8 mi North 3.5 mph - 0.00 in Snow Light Snow
4:25 AM 30.2 °F 24.3 °F 26.6 °F 86% 30.13 in 3.0 mi North 5.8 mph - 0.00 in Snow Light Snow
4:53 AM 30.0 °F 25.2 °F 26.1 °F 85% 30.13 in 9.0 mi NNE 4.6 mph - 0.00 in   Overcast
5:38 AM 30.2 °F 25.4 °F 26.6 °F 86% 30.13 in 2.5 mi North 4.6 mph - 0.00 in Snow Light Snow
5:46 AM 30.2 °F - 24.8 °F 80% 30.13 in 9.0 mi Calm Calm - 0.00 in   Overcast
5:53 AM 30.0 °F 26.5 °F 25.0 °F 82% 30.14 in 7.0 mi NE 3.5 mph - 0.00 in   Overcast
6:21 AM 30.2 °F 25.4 °F 26.6 °F 86% 30.14 in 1.8 mi North 4.6 mph - 0.00 in Snow Light Snow
6:40 AM 30.2 °F 25.4 °F 26.6 °F 86% 30.14 in 2.0 mi North 4.6 mph - 0.00 in Snow Light Snow
6:53 AM 30.0 °F 25.2 °F 26.1 °F 85% 30.14 in 1.2 mi North 4.6 mph - 0.00 in Snow Light Snow
7:16 AM 30.2 °F 25.4 °F 26.6 °F 86% 30.14 in 1.8 mi NNE 4.6 mph - 0.00 in Snow Light Snow
7:23 AM 30.2 °F 25.4 °F 26.6 °F 86% 30.14 in 3.0 mi NNE 4.6 mph - 0.00 in Snow Light Snow
7:34 AM 30.2 °F 24.3 °F 26.6 °F 86% 30.14 in 1.8 mi North 5.8 mph - 0.00 in Snow Light Snow
7:45 AM 30.2 °F 26.7 °F 26.6 °F 86% 30.15 in 1.8 mi NNE 3.5 mph - 0.00 in Snow Light Snow
7:51 AM 30.2 °F 24.3 °F 26.6 °F 86% 30.15 in 3.0 mi NNE 5.8 mph - 0.00 in Snow Light Snow
7:53 AM 30.0 °F 24.1 °F 26.1 °F 85% 30.15 in 3.0 mi North 5.8 mph - 0.00 in Snow Light Snow
8:53 AM 30.0 °F 25.2 °F 24.1 °F 79% 30.16 in 10.0 mi NNW 4.6 mph - 0.00 in   Overcast
9:30 AM 30.2 °F 25.4 °F 24.8 °F 80% 30.16 in 7.0 mi NNW 4.6 mph - 0.00 in   Overcast
9:53 AM 30.9 °F 26.2 °F 25.0 °F 79% 30.16 in 10.0 mi North 4.6 mph - 0.00 in   Overcast
10:53 AM 30.9 °F 24.3 °F 25.0 °F 79% 30.17 in 10.0 mi NNW 6.9 mph - N/A   Overcast
11:53 AM 30.9 °F 25.2 °F 25.0 °F 79% 30.17 in 10.0 mi NNW 5.8 mph - N/A   Overcast
12:53 PM 30.9 °F 23.5 °F 25.0 °F 79% 30.19 in 10.0 mi NNW 8.1 mph - N/A   Overcast
1:53 PM 32.0 °F 24.2 °F 26.1 °F 79% 30.19 in 10.0 mi NW 9.2 mph - N/A   Overcast
2:53 PM 32.0 °F 24.2 °F 26.1 °F 79% 30.19 in 10.0 mi NNW 9.2 mph - N/A   Overcast
3:53 PM 32.0 °F 24.2 °F 26.1 °F 79% 30.19 in 10.0 mi NNW 9.2 mph - N/A   Overcast
4:53 PM 32.0 °F 24.2 °F 26.1 °F 79% 30.19 in 10.0 mi NNW 9.2 mph - N/A   Overcast
5:53 PM 32.0 °F 24.8 °F 26.1 °F 79% 30.19 in 10.0 mi NNW 8.1 mph - N/A   Overcast
6:53 PM 32.0 °F 24.2 °F 26.1 °F 79% 30.19 in 10.0 mi NNW 9.2 mph - N/A   Overcast
7:40 PM 32.0 °F 25.6 °F 26.6 °F 80% 30.19 in 10.0 mi NNW 6.9 mph - N/A   Scattered Clouds
7:53 PM 32.0 °F 24.8 °F 26.1 °F 79% 30.19 in 10.0 mi NNW 8.1 mph - N/A   Partly Cloudy
8:14 PM 32.0 °F 24.2 °F 26.6 °F 80% 30.19 in 10.0 mi NNW 9.2 mph - N/A   Mostly Cloudy
8:53 PM 32.0 °F 24.8 °F 26.1 °F 79% 30.20 in 10.0 mi NNW 8.1 mph - N/A   Overcast
9:53 PM 30.9 °F 25.2 °F 26.1 °F 82% 30.20 in 10.0 mi NNW 5.8 mph - N/A   Overcast
10:53 PM 30.9 °F 25.2 °F 25.0 °F 79% 30.20 in 10.0 mi NNW 5.8 mph - N/A   Overcast
11:46 PM 30.2 °F 25.4 °F 26.6 °F 86% 30.21 in 10.0 mi NNW 4.6 mph - N/A   Overcast
11:53 PM 30.9 °F 26.2 °F 26.1 °F 82% 30.21 in 10.0 mi NNW 4.6 mph - N/A   Overcast